Regional Weather Roundup
Issued by NWS

Home | Current Version | Previous Version | Graphics & Text | Print | Product List | Glossary On
Versions: 1 2 3 4 5 6 7 8 9 10 11 12 13 14 15 16 17 18 19 20 21 22 23 24 25 26 27 28 29 30 31 32 33 34 35 36 37 38 39 40 41 42 43 44 45 46 47 48 49 50
000
ASUS43 KLOT 022303
RWRIL

ILLINOIS REGIONAL WEATHER ROUNDUP
NATIONAL WEATHER SERVICE CHICAGO/ROMEOVILLE IL
600 PM CDT MON MAY 02 2016

NOTE: "FAIR" INDICATES FEW OR NO CLOUDS BELOW 12,000 FEET WITH NO
SIGNIFICANT WEATHER AND/OR OBSTRUCTIONS TO VISIBILITY.

* THESE STATIONS ARE NOT UNDER NWS QUALITY CONTROL. THEY ALSO MAY NOT
  REPORT WEATHER SUCH AS PRECIPITATION OR FOG.

ILZ001-002-007-009-015-016-024-030000-
NORTHWEST ILLINOIS

CITY           SKY/WX    TMP DP  RH WIND       PRES   REMARKS
MOLINE         CLOUDY    60  38  43 NE6       30.02S
STERLING*      CLOUDY    59  39  47 N6        30.02S
$$

ILZ003-004-008-010-011-017-018-030000-
NORTH CENTRAL ILLINOIS

CITY           SKY/WX    TMP DP  RH WIND       PRES   REMARKS
ROCKFORD       PTSUNNY   59  35  40 NE8       30.03S
FREEPORT*      CLOUDY    57  37  46 CALM      30.04S
DE KALB*       PTSUNNY   57  37  47 NE8       30.01S
$$

ILZ005-006-012>014-019>023-030000-
NORTHEAST ILLINOIS

CITY           SKY/WX    TMP DP  RH WIND       PRES   REMARKS
CHICAGO-OHARE  PTSUNNY   56  32  40 NE12      30.01S
CHICAGO-MIDWAY PTSUNNY   55  36  48 NE12      30.02S
AURORA         SUNNY     59  34  39 NE15      30.02R
LANSING*       CLOUDY    52  35  52 N9        30.02S
WAUKEGAN       MOSUNNY   54  36  50 NE7       30.02S
DUPAGE AIRPORT SUNNY     57  31  37 NE13      30.01R
WHEELING       PTSUNNY   55  31  39 NE7       30.03F
NORTHERLY ISL    N/A     49  37  63 N7          N/A
NORTHERLY ISL    N/A     49  37  63 N7          N/A
$$

LMZ740>746-030000-
SOUTHERN LAKE MICHIGAN

STATION/POSITION SKY/WX   TEMP    WIND        PRES    VSBY  WAVE
                          AIR SEA DIR/SP/G                  HT/PER
                          (F)     (DEG/KT/KT) (MB)    (MI)  (FT/S)
SOUTHERN BUOY              42 41  340/  4/  6 1017.0          1/ 4
HARRISON CRIB              46     350/  9/ 10   N/A
BURNHAM HARBOR             49      10/  7/ 11   N/A
CALUMET HARBOR             48                 1016.2F
BURNS HARBOR               46      50/  8/ 11 1017.3S
MICHIGAN CITY              45      20/  8/  9   N/A
ST. JOSEPH                 46 48                N/A           2/ 4
$$

ILZ025>027-034>036-040-047-049-050-058-095>099-030000-
WEST-CENTRAL ILLINOIS

CITY           SKY/WX    TMP DP  RH WIND       PRES   REMARKS
QUINCY         CLOUDY    52  47  83 N9        30.04S
MACOMB*        CLOUDY    55  46  72 CALM      30.05S
$$

ILZ028>032-037-038-041>044-048-051>054-059>061-030000-
CENTRAL ILLINOIS

CITY           SKY/WX    TMP DP  RH WIND       PRES   REMARKS
BLOOMINGTON    CLOUDY    57  44  62 NE6       30.01S
DECATUR        CLOUDY    55  46  71 W7        30.01S
PEORIA         CLOUDY    57  43  59 NW5       30.01F
SPRINGFIELD    CLOUDY    57  47  69 N6        30.02S
TAYLORVILLE    NOT AVBL
$$

ILZ033-039-045-046-055>057-062-063-030000-
EAST-CENTRAL ILLINOIS

CITY           SKY/WX    TMP DP  RH WIND       PRES   REMARKS
CHAMPAIGN      CLOUDY    56  46  69 N8        29.99S
MATTOON        CLOUDY    56  47  71 N9        29.98S
$$

ILZ079-100>102-030000-
SOUTHWEST ILLINOIS

CITY           SKY/WX    TMP DP  RH WIND       PRES   REMARKS
ALTON          CLOUDY    55  48  76 NW8       30.02F
BELLEVILLE     CLOUDY    57  50  78 NW9       29.99F
CAHOKIA*       CLOUDY    57  47  69 NW8       30.01F
SPARTA*        CLOUDY    58  49  73 NW7       30.01S
$$

ILZ064>066-069>071-074>076-080>082-084>086-088>090-092>094-030000-
SOUTH-CENTRAL ILLINOIS

CITY           SKY/WX    TMP DP  RH WIND       PRES   REMARKS
CARBONDALE     PTSUNNY   59  48  67 NW8       29.99F
MARION         CLOUDY    59  50  72 NW12      29.99F
MT. VERNON     CLOUDY    57  46  67 CALM      30.00S
SALEM*         CLOUDY    58  50  75 N8        30.00R
$$

ILZ067-068-072-073-078-083-087-091-030000-
SOUTHEAST ILLINOIS

CITY           SKY/WX    TMP DP  RH WIND       PRES   REMARKS
LAWRENCEVILLE  CLOUDY    56  50  80 N13       29.97F
FLORA*         CLOUDY    57  50  76 NW8       29.99S
HARRISBURG*    CLOUDY    59  51  75 NW6       29.99S
ROBINSON*      CLOUDY    54  50  86 N7        29.98F
$$

ABBREVIATIONS USED IN REMARKS
   TC - TEMPERATURE IN CELSIUS
  WCI - WIND CHILL INDEX
   HX - HEAT INDEX
  VSB - VISIBILITY
$$




USA.gov is the U.S. government's official web portal to all federal, state and local government web resources and services.